When you browse on this site, cookies collect data to enhance your experience and personalize the content and advertising you see.
Visit our Privacy Policy to learn more. By continuing to use the site, you agree to this use of cookies and data.
  • In Spain
  • List of Countries
  • For 7 days
  • Water Temperature
  • Satellite Maps
  • Weather Map
  • Weather Widgets
  • user-avatar
    Login

    Hourly Weather Gold Coast

    Today, 19 February, Tuesday

    Time Temperature Precipitation Wind Pressure Humidity
    00:00 +22°C° 0 mm 1 mps 754 mmHg 87%
    01:00 +22°C° 0 mm 1 mps 754 mmHg 89%
    02:00 +21°C° 0 mm 1 mps 753 mmHg 90%
    03:00 +21°C° 0 mm 1 mps 753 mmHg 91%
    04:00 +21°C° 0 mm 1 mps 753 mmHg 93%
    05:00 +22°C° 0 mm 1 mps 753 mmHg 89%
    06:00 +23°C° 0 mm 1 mps 753 mmHg 85%
    07:00 +24°C° 0 mm 1 mps 753 mmHg 81%
    08:00 +27°C° 0 mm 1 mps 752 mmHg 68%
    09:00 +30°C° 0 mm 1 mps 752 mmHg 56%
    10:00 +32°C° 0 mm 1 mps 752 mmHg 49%
    11:00 +34°C° 0 mm 2 mps 752 mmHg 45%
    12:00 +35°C° 0 mm 2 mps 751 mmHg 42%
    13:00 +37°C° 0 mm 3 mps 751 mmHg 39%
    14:00 +35°C° 0 mm 3 mps 750 mmHg 44%
    15:00 +34°C° 0 mm 3 mps 750 mmHg 49%
    16:00 +31°C° 0 mm 3 mps 750 mmHg 61%
    17:00 +29°C° 0 mm 2 mps 750 mmHg 68%
    18:00 +27°C° 0 mm 2 mps 751 mmHg 75%
    19:00 +25°C° 0 mm 1 mps 751 mmHg 82%
    20:00 +25°C° 0 mm 1 mps 751 mmHg 85%
    21:00 +24°C° 0 mm 1 mps 751 mmHg 87%
    22:00 +24°C° 0 mm 1 mps 752 mmHg 89%
    23:00 +24°C° 0 mm 1 mps 752 mmHg 90%

    Tomorrow, 20 February, Wednesday

    Time Temperature Precipitation Wind Pressure Humidity
    00:00 +23°C° 0 mm 1 mps 751 mmHg 91%
    01:00 +23°C° 0 mm 1 mps 751 mmHg 92%
    02:00 +23°C° 0 mm 2 mps 751 mmHg 91%
    03:00 +23°C° 0 mm 2 mps 751 mmHg 91%
    04:00 +22°C° 0 mm 3 mps 751 mmHg 90%
    05:00 +24°C° 0 mm 3 mps 751 mmHg 87%
    06:00 +25°C° 0 mm 4 mps 752 mmHg 83%
    07:00 +26°C° 0 mm 4 mps 752 mmHg 79%
    08:00 +28°C° 0 mm 5 mps 752 mmHg 71%
    09:00 +29°C° 0 mm 5 mps 752 mmHg 63%
    10:00 +32°C° 0 mm 5 mps 752 mmHg 55%
    11:00 +33°C° 0 mm 5 mps 752 mmHg 51%
    12:00 +34°C° 0 mm 5 mps 752 mmHg 47%
    13:00 +35°C° 0 mm 5 mps 751 mmHg 43%
    14:00 +35°C° 0 mm 5 mps 751 mmHg 44%
    15:00 +35°C° 0 mm 5 mps 750 mmHg 45%
    16:00 +35°C° 0 mm 5 mps 750 mmHg 46%
    17:00 +33°C° 0 mm 6 mps 750 mmHg 58%
    18:00 +30°C° 0 mm 6 mps 750 mmHg 69%
    19:00 +27°C° 0 mm 6 mps 751 mmHg 81%
    20:00 +27°C° 0 mm 6 mps 751 mmHg 82%
    21:00 +27°C° 0 mm 6 mps 752 mmHg 84%
    22:00 +26°C° 0 mm 6 mps 752 mmHg 85%
    23:00 +26°C° 0 mm 6 mps 752 mmHg 85%

    Day after tomorrow, 21 February, Thursday

    Time Temperature Precipitation Wind Pressure Humidity
    00:00 +26°C° 0 mm 6 mps 751 mmHg 85%
    01:00 +27°C° 0 mm 5 mps 751 mmHg 85%
    02:00 +26°C° 0 mm 6 mps 751 mmHg 85%
    03:00 +26°C° 0 mm 6 mps 751 mmHg 85%
    04:00 +26°C° 0 mm 6 mps 750 mmHg 85%
    05:00 +27°C° 0 mm 6 mps 751 mmHg 82%
    06:00 +27°C° 0 mm 7 mps 751 mmHg 79%
    07:00 +27°C° 0 mm 7 mps 752 mmHg 76%
    08:00 +29°C° 0 mm 7 mps 752 mmHg 69%
    09:00 +30°C° 0 mm 7 mps 752 mmHg 61%
    10:00 +33°C° 0 mm 7 mps 752 mmHg 54%
    11:00 +34°C° 0 mm 8 mps 752 mmHg 51%
    12:00 +34°C° 0 mm 8 mps 751 mmHg 48%
    13:00 +35°C° 0 mm 8 mps 751 mmHg 46%
    14:00 +35°C° 0 mm 8 mps 750 mmHg 48%
    15:00 +34°C° 0 mm 8 mps 750 mmHg 50%
    16:00 +33°C° 0 mm 9 mps 750 mmHg 53%
    17:00 +32°C° 0 mm 9 mps 750 mmHg 59%
    18:00 +29°C° 0 mm 8 mps 751 mmHg 66%
    19:00 +28°C° 0 mm 8 mps 751 mmHg 72%
    20:00 +27°C° 0 mm 9 mps 752 mmHg 72%
    21:00 +27°C° 0 mm 9 mps 752 mmHg 73%
    22:00 +27°C° 0 mm 9 mps 753 mmHg 74%
    23:00 +26°C° 0.1 mm 9 mps 752 mmHg 75%

    22 February, Friday

    Time Temperature Precipitation Wind Pressure Humidity
    00:00 +26°C° 0.1 mm 9 mps 752 mmHg 76%
    01:00 +26°C° 0.1 mm 9 mps 752 mmHg 76%
    02:00 +26°C° 0.1 mm 10 mps 752 mmHg 76%
    03:00 +26°C° 0.1 mm 10 mps 751 mmHg 75%
    04:00 +26°C° 0.1 mm 10 mps 751 mmHg 74%
    05:00 +26°C° 0.1 mm 10 mps 752 mmHg 72%
    06:00 +26°C° 0.1 mm 10 mps 752 mmHg 71%
    07:00 +26°C° 0.1 mm 11 mps 753 mmHg 70%
    08:00 +26°C° 0.1 mm 11 mps 753 mmHg 66%
    09:00 +27°C° 0.1 mm 11 mps 753 mmHg 62%
    10:00 +28°C° 0.1 mm 11 mps 753 mmHg 58%
    11:00 +29°C° 0 mm 11 mps 753 mmHg 54%
    12:00 +31°C° 0 mm 11 mps 752 mmHg 49%
    13:00 +32°C° 0 mm 11 mps 752 mmHg 44%
    14:00 +32°C° 0 mm 11 mps 752 mmHg 46%
    15:00 +31°C° 0 mm 10 mps 752 mmHg 47%
    16:00 +29°C° 0 mm 10 mps 752 mmHg 49%
    17:00 +28°C° 0 mm 10 mps 753 mmHg 53%
    18:00 +27°C° 0 mm 9 mps 754 mmHg 57%
    19:00 +24°C° 0 mm 8 mps 754 mmHg 61%
    20:00 +24°C° 0.1 mm 9 mps 755 mmHg 65%
    21:00 +24°C° 0.1 mm 9 mps 755 mmHg 68%
    22:00 +24°C° 0.1 mm 9 mps 756 mmHg 71%
    23:00 +23°C° 0 mm 9 mps 755 mmHg 71%

    23 February, Saturday

    Time Temperature Precipitation Wind Pressure Humidity
    00:00 +23°C° 0 mm 8 mps 755 mmHg 70%
    01:00 +22°C° 0 mm 8 mps 755 mmHg 69%
    02:00 +22°C° 0 mm 8 mps 755 mmHg 70%
    03:00 +22°C° 0 mm 8 mps 755 mmHg 70%
    04:00 +22°C° 0 mm 8 mps 754 mmHg 70%
    05:00 +23°C° 0 mm 9 mps 755 mmHg 68%
    06:00 +23°C° 0 mm 9 mps 756 mmHg 66%
    07:00 +24°C° 0 mm 9 mps 756 mmHg 65%
    08:00 +26°C° 0 mm 9 mps 757 mmHg 59%
    09:00 +27°C° 0 mm 9 mps 757 mmHg 54%
    10:00 +29°C° 0 mm 10 mps 757 mmHg 48%
    11:00 +29°C° 0 mm 9 mps 757 mmHg 46%
    12:00 +31°C° 0 mm 9 mps 757 mmHg 44%
    13:00 +32°C° 0 mm 9 mps 757 mmHg 41%
    14:00 +31°C° 0 mm 9 mps 757 mmHg 43%
    15:00 +29°C° 0 mm 9 mps 757 mmHg 45%
    16:00 +29°C° 0 mm 9 mps 757 mmHg 47%
    17:00 +28°C° 0 mm 9 mps 758 mmHg 53%
    18:00 +26°C° 0 mm 9 mps 758 mmHg 58%
    19:00 +24°C° 0 mm 9 mps 759 mmHg 63%
    20:00 +24°C° 0.1 mm 8 mps 759 mmHg 66%
    21:00 +23°C° 0.1 mm 8 mps 759 mmHg 69%
    22:00 +23°C° 0.1 mm 8 mps 760 mmHg 72%
    23:00 +23°C° 0.1 mm 8 mps 759 mmHg 74%

    24 February, Sunday

    Time Temperature Precipitation Wind Pressure Humidity
    00:00 +22°C° 0.1 mm 8 mps 759 mmHg 76%
    01:00 +22°C° 0.1 mm 7 mps 759 mmHg 77%
    02:00 +22°C° 0.1 mm 7 mps 759 mmHg 78%
    03:00 +22°C° 0.1 mm 7 mps 759 mmHg 79%
    04:00 +22°C° 0.1 mm 7 mps 759 mmHg 79%
    05:00 +22°C° 0.1 mm 7 mps 759 mmHg 77%
    06:00 +22°C° 0.1 mm 8 mps 760 mmHg 75%
    07:00 +23°C° 0.1 mm 8 mps 760 mmHg 73%
    08:00 +24°C° 0.1 mm 8 mps 761 mmHg 67%
    09:00 +26°C° 0.1 mm 8 mps 761 mmHg 62%
    10:00 +28°C° 0.1 mm 8 mps 761 mmHg 56%
    11:00 +28°C° 0 mm 8 mps 761 mmHg 53%
    12:00 +29°C° 0 mm 8 mps 761 mmHg 50%
    13:00 +29°C° 0 mm 8 mps 760 mmHg 48%
    14:00 +29°C° 0 mm 8 mps 760 mmHg 50%
    15:00 +28°C° 0 mm 8 mps 760 mmHg 51%
    16:00 +28°C° 0 mm 8 mps 760 mmHg 53%
    17:00 +27°C° 0.1 mm 8 mps 761 mmHg 58%
    18:00 +24°C° 0.1 mm 8 mps 761 mmHg 63%
    19:00 +23°C° 0.1 mm 7 mps 762 mmHg 68%
    20:00 +23°C° 0.1 mm 7 mps 762 mmHg 71%
    21:00 +22°C° 0.1 mm 7 mps 762 mmHg 74%
    22:00 +22°C° 0.1 mm 7 mps 763 mmHg 77%
    23:00 +22°C° 0.1 mm 7 mps 762 mmHg 78%
    Show more